weather.gov     
National Weather Service

Regional Weather Roundup
NWS Homepage
This page is being discontinued on March 12, 2014.
The same data is available at this site. Please update your bookmarks.
Thank you, and we apologize for the inconvenience.
Please send an email to SR-SRH.Webmaster@noaa.gov with any concerns.


Current Version
Previous Version:    01  02  03  04  05  06  07  08  09  10  11  12  13  14  15  16  17  18  19  20  21  22  23  24  25  26  27  28  29  30  
   31  32  33  34  35  36  37  38  39  40  41  42  43  44  45  46  47  48  49  50  51  52  53  54  
[Printable]
603
ASUS44 KMEG 260310
RWRMEG
MEMPHIS CWA HOURLY WEATHER ROUNDUP
NATIONAL WEATHER SERVICE MEMPHIS TN
900 PM CST TUE NOV 25 2014

...WEST TENNESSEE...

CITY           SKY/WX    TMP DP  RH WIND       PRES   REMARKS
MEMPHIS INTL   CLEAR     36  28  73 CALM      30.21R
NWS MEMPHIS      N/A     32 N/A N/A MISG        N/A
JACKSON        CLEAR     33  26  75 CALM      30.20S
LEXINGTON      CLEAR     37  25  60 CALM      30.18R
SAVANNAH       CLEAR     30  28  93 CALM      30.19S
DYERSBURG      CLEAR     32  18  55 CALM      30.22S
UNION CITY     CLEAR     28  25  86 CALM      30.19S
PARIS          CLEAR     27  25  93 CALM      30.18S
HUNTINGDON     CLEAR     31  25  78 CALM      30.20R


...EASTERN ARKANSAS...

CITY           SKY/WX    TMP DP  RH WIND       PRES   REMARKS
JONESBORO      CLEAR     32  29  88 CALM      30.20S
WEST MEMPHIS   CLEAR     32  30  92 CALM      30.21R
BATESVILLE     CLEAR     34  23  64 CALM      30.19S
NEWPORT        CLEAR     36  29  76 S6        30.22R WCI  31
WALNUT RIDGE   CLEAR     36  27  69 S3        30.20R
BLYTHEVILLE    CLEAR     42  30  62 SE3       30.21S
SEARCY         CLEAR     33  27  78 CALM      30.22S
STUTTGART      CLEAR     39  30  70 S3        30.21S
PINE BLUFF     CLEAR     38  30  73 CALM      30.21S
MONTICELLO     CLEAR     34  30  85 NE5       30.21S WCI  30


...NORTH MISSISSIPPI...

CITY           SKY/WX    TMP DP  RH WIND       PRES   REMARKS
TUPELO         CLEAR     40  25  55 NW5       30.20R
OXFORD         CLEAR     28  27  93 CALM      30.23R
OLIVE BRANCH   CLEAR     34  32  93 CALM      30.21S
TUNICA         CLEAR     36  30  80 CALM      30.23S
CLARKSDALE     CLEAR     37  32  81 CALM      30.23S
CORINTH        CLEAR     34  28  80 W5        30.19S WCI  30
GRENADA        CLEAR     32  30  93 CALM      30.23S
GREENWOOD      CLEAR     33  28  81 CALM      30.23R
COLUMBUS       CLOUDY    42  28  58 NW3       30.19F
STARKVILLE     FAIR      37  32  81 CALM      30.19F
GOLDEN TRIANGL CLOUDY    41  27  56 NW3       30.18F


...SOUTHEAST MISSOURI...

CITY           SKY/WX    TMP DP  RH WIND       PRES   REMARKS
WEST PLAINS    CLEAR     27  19  72 CALM      30.15F
POPLAR BLUFF   CLEAR     30  25  81 CALM      30.19R
CAPE GIRARDEAU CLEAR     30  27  88 CALM      30.20S


...NORTHWEST ALABAMA...

CITY           SKY/WX    TMP DP  RH WIND       PRES   REMARKS
MUSCLE SHOALS  CLOUDY    45  28  51 NW6       30.18R


...MIDDLE TENNESSEE...

CITY           SKY/WX    TMP DP  RH WIND       PRES   REMARKS
NASHVILLE      CLOUDY    42  27  55 NW6       30.17R
CLARKSVILLE    MOCLDY    34  28  79 N6        30.18R WCI  29
COLUMBIA       CLEAR     41  28  60 CALM      30.15R


...WESTERN KENTUCKY...

CITY           SKY/WX    TMP DP  RH WIND       PRES   REMARKS
PADUCAH        FAIR      31  25  78 CALM      30.20R
FORT CAMPBELL  MOCLDY    35  29  77 N5        30.19R WCI  31


...CENTRAL ARKANSAS...

CITY           SKY/WX    TMP DP  RH WIND       PRES   REMARKS
LITTLE ROCK    CLEAR     38  25  59 CALM      30.20S


SKY/WX REPORTED AS FAIR MEANS FEW OR NO CLOUDS BELOW
12 THOUSAND FEET.





U.S. Dept. of Commerce
NOAA National Weather Service
1325 East West Highway
Silver Spring, MD 20910
E-mail: w-nws.webmaster@noaa.gov
Page last modified: May 16, 2007
NATIONAL WEATHER SERVICE: for Safety, for Work, for Fun - FOR LIFE